Terminal Aerodrome Forecast
Issued by NWS Sioux Falls, SD

Home | Current Version | Previous Version | Graphics & Text | Print | Product List | Glossary On
Versions: 1 2 3 4 5 6 7 8 9 10 11 12 13 14 15 16 17
000
FTUS43 KFSD 130500
TAFHON
TAF
KHON 130520Z 1306/1406 24006KT P6SM SCT080 SCT200
     FM131100 36010KT P6SM SCT080
     FM131700 34011G18KT P6SM SCT040
     FM140000 33007KT P6SM SKC=

USA.gov is the U.S. government's official web portal to all federal, state and local government web resources and services.